Regional Weather Roundup
Issued by NWS Cleveland, OH

Home | Current Version | Previous Version | Text Only | Print | Product List | Glossary Off
Versions: 1 2 3 4 5 6 7 8 9 10 11 12 13 14 15 16 17 18 19 20 21 22 23 24 25 26 27 28 29 30 31 32 33 34 35 36 37 38 39 40 41 42 43 44 45 46 47 48 49 50

000
ASUS41 KCLE 281510
RWRCLE
OHIO REGIONAL WEATHER ROUNDUP
NATIONAL WEATHER SERVICE CLEVELAND, OH
1100 AM EDT FRI JUL 28 2017

NOTE: "FAIR" INDICATES FEW OR NO CLOUDS BELOW 12,000 FEET WITH NO
SIGNIFICANT WEATHER AND/OR OBSTRUCTIONS TO VISIBILITY.

OHZ001>008-015>018-024>027-034-035-043-044-281600-
   NORTHWEST OHIO

CITY           SKY/WX    TMP DP  RH WIND       PRES   REMARKS
DEFIANCE       CLOUDY    67  60  78 NE9       29.95R
FINDLAY        CLOUDY    73  64  73 NE16      29.91R
TOLEDO EXPRESS CLOUDY    69  63  81 N9        29.93S
TOLEDO EXEC    CLOUDY    71  65  81 N9        29.94R
LIMA           CLOUDY    69  66  90 VRB6      29.92R
$$

OHZ009>014-019>023-028>033-038-089-281600-
   NORTHEAST OHIO

CITY           SKY/WX    TMP DP  RH WIND       PRES   REMARKS
CLE-HOPKINS    CLOUDY    78  68  71 NE9       29.90R
CLE-LAKEFRONT  CLOUDY    75  67  76 NE12      29.87S
CUY CO. ARPT   CLOUDY    75  64  69 NE13      29.89S
LORAIN-ELYRIA  CLOUDY    75  64  68 NE8       29.89S
ASHTABULA      CLOUDY    74  67  78 NE7       29.91S
AKRON-CANTON   CLOUDY    76  66  71 N8        29.87F
WOOSTER        PTSUNNY   75  67  76 N6        29.88S
MANSFIELD      CLOUDY    74  67  78 N10       29.90R
YOUNGSTOWN     CLOUDY    74  67  78 NE8       29.88S
$$

OHZ042-051>053-060>062-070>072-077>081-281600-
  SOUTHWEST OHIO

CITY           SKY/WX    TMP DP  RH WIND       PRES   REMARKS
CINC-COVINGTON LGT RAIN  73  73 100 NE8       29.85F
CINC-LUNKEN    LGT RAIN  73  72  96 NE3       29.85S
HAMILTON       CLOUDY    76  71  85 N7        29.87R
DAYTON         CLOUDY    73  66  78 N10       29.90R
WRIGHT-PAT AFB PTSUNNY   75  68  78 NE10      29.88R
DAYTON GENERAL CLOUDY    76  69  79 NE9       29.87S
WILMINGTON     CLOUDY    73  70  90 NE9       29.86S
$$

OHZ036-037-039>041-045>050-054>059-063>069-073>076-082>088-281600-
  CENTRAL AND SOUTHEAST OHIO

CITY           SKY/WX    TMP DP  RH WIND       PRES   REMARKS
COLUMBUS       PTSUNNY   78  71  79 NE7       29.85S
OSU AIRPORT    MOSUNNY   76  70  82 NE9       29.86F
BOLTON FIELD   PTSUNNY   77  70  78 N5        29.87S
RICKENBACK AFB PTSUNNY   74  69  85 NE6       29.85S
NEWARK         PTSUNNY   75  68  78 NE6       29.85F
MARION         MOSUNNY   74  67  78 NE13      29.89S
LANCASTER      CLOUDY    74  70  87 N6        29.86R
ZANESVILLE     PTSUNNY   76  69  79 NE6       29.85R
NEW PHILLY     NOT AVBL
$$




USA.gov is the U.S. government's official web portal to all federal, state and local government web resources and services.